Printer-friendly version
Follow the MPC on Twitter Follow the MPC on Facebook The MPC blog
Minor Planet Center

MPEC 2010-L86 : 2010 LF64

The following Minor Planet Electronic Circular may be linked-to from your own Web pages, but must not otherwise be redistributed electronically.

A form allowing access to any MPEC is at the bottom of this page.


Read MPEC 2010-L85 Read MPEC 2010-L87


M.P.E.C. 2010-L86                                Issued 2010 June 14, 18:55 UT

     The Minor Planet Electronic Circulars contain information on unusual
         minor planets and routine data on comets.  They are published
   on behalf of Commission 20 of the International Astronomical Union by the
          Minor Planet Center, Smithsonian Astrophysical Observatory,
                          Cambridge, MA 02138, U.S.A.

             Prepared using the Tamkin Foundation Computer Network

                              MPC@CFA.HARVARD.EDU
       URL http://www.minorplanetcenter.org/iau/mpc.html  ISSN 1523-6714

                                   2010 LF64

Observations:
     K10L64F* S2010 06 03.05874 10 32 34.49 -18 35 18.8          22   R EL086C51
     K10L64F  s2010 06 03.05874 1 - 6260.9020 + 2188.9155 - 1941.8664   EL086C51
     K10L64F  S2010 06 03.19105 10 32 44.46 -18 40 06.6                 EL086C51
     K10L64F  s2010 06 03.19105 1 - 6265.0065 + 2173.9231 - 1945.0093   EL086C51
     K10L64F  S2010 06 03.25713 10 32 49.49 -18 42 29.6                 EL086C51
     K10L64F  s2010 06 03.25713 1 - 6257.9486 + 2157.3582 - 1985.9506   EL086C51
     K10L64F  S2010 06 03.25726 10 32 49.46 -18 42 30.3                 EL086C51
     K10L64F  s2010 06 03.25726 1 - 6276.2017 + 2175.7393 - 1906.4915   EL086C51
     K10L64F  S2010 06 03.32335 10 32 54.20 -18 44 54.3                 EL086C51
     K10L64F  s2010 06 03.32335 1 - 6269.4669 + 2159.3180 - 1947.2801   EL086C51
     K10L64F  S2010 06 03.38944 10 32 59.56 -18 47 16.7                 EL086C51
     K10L64F  s2010 06 03.38944 1 - 6262.5642 + 2142.8041 - 1988.0788   EL086C51
     K10L64F  S2010 06 03.45565 10 33 04.50 -18 49 40.5                 EL086C51
     K10L64F  s2010 06 03.45565 1 - 6273.9149 + 2144.6802 - 1950.0497   EL086C51
     K10L64F  S2010 06 03.52174 10 33 09.55 -18 52 02.7                 EL086C51
     K10L64F  s2010 06 03.52174 1 - 6266.1500 + 2127.6541 - 1993.2293   EL086C51
     K10L64F  S2010 06 03.65404 10 33 19.63 -18 56 49.3                 EL086C51
     K10L64F  s2010 06 03.65404 1 - 6269.9761 + 2112.3563 - 1997.2026   EL086C51
     K10L64F  S2010 06 03.72026 10 33 24.59 -18 59 13.0                 EL086C51
     K10L64F  s2010 06 03.72026 1 - 6281.5549 + 2114.0140 - 1958.7901   EL086C51
     K10L64F  S2010 06 03.98474 10 33 44.99 -19 08 43.5                 EL086C51
     K10L64F  s2010 06 03.98474 1 - 6270.7840 + 2065.9035 - 2043.1575   EL086C51
     K10L64F  S2010 06 04.05096 10 33 50.21 -19 11 05.9                 EL086C51
     K10L64F  s2010 06 04.05096 1 - 6282.1774 + 2067.2890 - 2005.9227   EL086C51
     K10L64F  S2010 06 04.11704 10 33 55.28 -19 13 28.6                 EL086C51
     K10L64F  s2010 06 04.11704 1 - 6274.2293 + 2050.4817 - 2047.3224   EL086C51
     K10L64F  S2010 06 04.18326 10 34 00.34 -19 15 51.0                 EL086C51
     K10L64F  s2010 06 04.18326 1 - 6285.9289 + 2052.2160 - 2009.1314   EL086C51
     K10L64F  S2010 06 04.31556 10 34 10.88 -19 20 38.9                 EL086C51
     K10L64F  s2010 06 04.31556 1 - 6290.0620 + 2037.5517 - 2011.4254   EL086C51
     K10L64F  S2010 06 04.44774 10 34 21.04 -19 25 20.7                 EL086C51
     K10L64F  s2010 06 04.44774 1 - 6274.3588 + 2004.4751 - 2093.1269   EL086C51
     K10L64F  S2010 06 04.44787 10 34 21.01 -19 25 21.3                 EL086C51
     K10L64F  s2010 06 04.44787 1 - 6294.2271 + 2022.8690 - 2014.0999   EL086C51
     K10L64F  S2010 06 04.58004 10 34 31.35 -19 30 03.8                 EL086C51
     K10L64F  s2010 06 04.58004 1 - 6277.6449 + 1989.3210 - 2097.4848   EL086C51
     K10L64F  S2010 06 04.71235 10 34 41.74 -19 34 49.5                 EL086C51
     K10L64F  s2010 06 04.71235 1 - 6281.5090 + 1974.1740 - 2100.3384   EL086C51
     K10L64F  S2010 06 04.97696 10 35 02.69 -19 44 16.3                 EL086C51
     K10L64F  s2010 06 04.97696 1 - 6289.1678 + 1944.4506 - 2105.3460   EL086C51
     K10L64F  S2010 06 05.10926 10 35 13.19 -19 49 00.3                 EL086C51
     K10L64F  s2010 06 05.10926 1 - 6292.2558 + 1928.9616 - 2109.6090   EL086C51

Observer details:
C51 WISE.  Measurers A. Mainzer, E. Wright, J. Bauer, T. Grav, J. Dailey, J.
    Masiero, R. Cutri, R. McMillan, R. Walker.
    (http://wise.ssl.berkeley.edu/mission_sci.html)

Orbital elements:
2010 LF64                                                Earth MOID = 0.1878 AU
Epoch 2010 July 23.0 TT = JDT 2455400.5                 MPC
M  13.89822              (2000.0)            P               Q
n   0.63290936     Peri.  237.70917     -0.23938854     +0.96541135
a   1.3435125      Node    19.26662     -0.75177822     -0.11696528
e   0.1593867      Incl.   18.24678     -0.61442871     -0.23302371
P   1.56           H   21.6           G   0.15           U   9
Residuals in seconds of arc
100603 C51  1.0+  0.7+    100603 C51  0.9+  0.7+    100604 C51  3.0+  2.0-
100603 C51  0.9+  0.2+    100603 C51  0.5+  0.4+    100604 C51  0.8+  0.3+
100603 C51  1.4+  0.4+    100603 C51  1.1-  0.0     100604 C51  0.2+  0.3+
100603 C51  0.8+  0.3+    100603 C51  0.3-  0.4+    100604 C51  0.1+  1.6+
100603 C51  2.9-  0.5-    100604 C51  1.1+  1.0+    100604 C51  0.1-  0.0
100603 C51  2.0+  0.2+    100604 C51  0.5+  0.6+    100604 C51  0.5+  0.6+
100603 C51  0.6+  0.1-    100604 C51  0.6-  1.0+    100605 C51  0.4+  0.1-

Ephemeris:
2010 LF64                a,e,i = 1.34, 0.16, 18                  q = 1.1294
Date    TT    R. A. (2000) Decl.     Delta      r     Elong.  Phase     V
2010 06 13    10 46.78   -24 23.2    0.481    1.135    91.5    63.4    22.5
2010 06 23    11 04.62   -29 53.0    0.507    1.131    89.3    64.0    22.7

Sonia Keys                   (C) Copyright 2010 MPC           M.P.E.C. 2010-L86

Read MPEC 2010-L85 Read MPEC 2010-L87


MPEC number:

Enter an MPEC number in one of the following forms:

  • 1997-B01 (the full form)
  • J97B01 (the packed version of the full form)
  • B01 (the abbreviated form)

Valid HTML 4.01!